ISS (ZARYA) 1 25544U 98067A 26105.23148970 .00005508 00000+0 10834-3 0 9994 2 25544 51.6321 251.6702 0006571 314.4960 45.5491 15.48920688561998 POISK 1 36086U 09060A 26105.23148970 .00005508 00000+0 10834-3 0 9992 2 36086 51.6321 251.6702 0006571 314.4960 45.5491 15.48920688561496 CSS (TIANHE) 1 48274U 21035A 26105.10565112 .00018051 00000+0 20098-3 0 9997 2 48274 41.4685 346.2837 0005649 210.9621 149.0886 15.62404897283301 ISS (NAUKA) 1 49044U 21066A 26105.23148970 .00005508 00000+0 10834-3 0 9990 2 49044 51.6321 251.6702 0006571 314.4960 45.5491 15.48920688561539 FREGAT DEB 1 49271U 11037PF 26104.93499389 .00000121 00000+0 33299-3 0 9994 2 49271 51.6410 191.9016 0947897 142.5117 224.5850 12.40990194217199 CSS (WENTIAN) 1 53239U 22085A 26105.10565112 .00018051 00000+0 20098-3 0 9990 2 53239 41.4685 346.2837 0005649 210.9621 149.0886 15.62404897283139 CSS (MENGTIAN) 1 54216U 22143A 26105.10565112 .00018051 00000+0 20098-3 0 9991 2 54216 41.4685 346.2837 0005649 210.9621 149.0886 15.62404897283674 TIANZHOU-9 1 64786U 25149A 26105.10565112 .00018051 00000+0 20098-3 0 9993 2 64786 41.4685 346.2837 0005649 210.9621 149.0886 15.62404897283677 PROGRESS-MS 32 1 65586U 25204A 26105.23148970 .00005508 00000+0 10834-3 0 9997 2 65586 51.6321 251.6702 0006571 314.4960 45.5491 15.48920688554507 YOTSUBA-KULOVER 1 65941U 98067XN 26105.19482213 .02246856 11949-4 87885-3 0 9999 2 65941 51.6076 224.1613 0012826 322.8255 37.1876 16.22891969 29328 BOTAN 1 65943U 98067XQ 26104.61443808 .01058913 72957-3 85849-3 0 9991 2 65943 51.6128 227.8385 0012167 320.4855 39.5272 16.13528741 29222 HRC MONOBLOCK CAMERA 1 66052U 98067XR 26104.86017448 .00041044 00000+0 39234-3 0 9996 2 66052 51.6259 242.4294 0004050 280.9032 79.1508 15.66286478 28057 HTV-X1 1 66174U 25241A 26104.77668914 .00004085 00000+0 13918-3 0 9990 2 66174 51.6355 259.0566 0007486 312.6087 47.4262 15.32643759 26475 SZ-21 MODULE 1 66515U 25246C 26105.01274532 .00025240 00000+0 19363-3 0 9997 2 66515 41.4750 339.2725 0004458 272.7054 87.3278 15.71468192 23784 SHENZHOU-22 1 66645U 25272A 26105.10565112 .00018051 00000+0 20098-3 0 9996 2 66645 41.4685 346.2837 0005649 210.9621 149.0886 15.62404897283673 SOYUZ-MS 28 1 66664U 25275A 26105.23148970 .00005508 00000+0 10834-3 0 9993 2 66664 51.6321 251.6702 0006571 314.4960 45.5491 15.48920688561772 DUPLEX 1 66906U 98067XS 26105.09635757 .00019648 00000+0 25723-3 0 9992 2 66906 51.6279 247.0177 0003893 293.0131 67.0450 15.58598219 20804 ISS OBJECT XT 1 66907U 98067XT 26105.08939002 .00262810 00000+0 99834-3 0 9997 2 66907 51.6198 237.8924 0010272 312.8462 47.1678 15.86266347 20927 ISS OBJECT XU 1 66908U 98067XU 26105.08144832 .00270734 00000+0 10030-2 0 9991 2 66908 51.6201 237.8336 0010175 311.1519 48.8607 15.86760339 20927 SILVERSAT 1 66909U 98067XV 26105.06953545 .00663705 20908-3 12552-2 0 9997 2 66909 51.6140 235.4536 0013604 318.9730 41.0255 15.99998535 20958 ISS OBJECT XW 1 66910U 98067XW 26104.61624315 .00171247 00000+0 77577-3 0 9990 2 66910 51.6189 240.7289 0009515 304.3505 55.6597 15.82842838 20846 ISS OBJECT XY 1 66912U 98067XY 26104.66437717 .00080395 00000+0 60664-3 0 9997 2 66912 51.6239 244.1064 0006401 300.4632 59.5733 15.71741483 20793 KNACKSAT-2 1 67683U 98067XZ 26104.43290565 .00023109 00000+0 34523-3 0 9991 2 67683 51.6301 253.8399 0011305 320.3591 39.6572 15.54855751 10346 CORAL 1 67684U 98067YA 26104.69486067 .00057787 00000+0 67685-3 0 9998 2 67684 51.6276 251.0865 0014946 313.5696 46.4056 15.60833285 10405 GXIBA-1 1 67685U 98067YB 26105.12270168 .00030486 00000+0 43970-3 0 9999 2 67685 51.6295 250.1958 0013380 320.0384 39.9621 15.55623009 10453 UITMSAT-2 1 67686U 98067YC 26105.09495128 .00036718 00000+0 50231-3 0 9993 2 67686 51.6291 250.0116 0010287 298.4747 61.5208 15.56999689 10452 HMU-SAT2 1 67687U 98067YD 26105.13077316 .00023493 00000+0 34533-3 0 9997 2 67687 51.6307 250.2540 0009709 300.3665 59.6366 15.55306273 10377 LEOPARD 1 67688U 98067YE 26105.10760594 .00033230 00000+0 46621-3 0 9993 2 67688 51.6292 250.0982 0009952 298.9533 61.0460 15.56372678 10370 CREW DRAGON 12 1 67796U 26031A 26105.23148970 .00005508 00000+0 10834-3 0 9991 2 67796 51.6321 251.6702 0006571 314.4960 45.5491 15.48920688562028 PROGRESS-MS 33 1 68319U 26058A 26105.23148970 .00005508 00000+0 10834-3 0 9992 2 68319 51.6321 251.6702 0006571 314.4960 45.5491 15.48920688 3165 CYGNUS NG-24 1 68689U 26079A 26105.23148970 .00005508 00000+0 10834-3 0 9995 2 68689 51.6321 251.6702 0006571 314.4960 45.5491 15.48920688 500